Station SMKF1 - Sombrero Key, FL Image indicating link to RSS feed of recent meteorological observations for station SMKF1


Conditions at SMKF1 as of
(5:00 pm EDT)
2100 GMT on 04/17/2024:
     

Click on the graph icon in the table below to see a time series plot of the last five days of that observation.

5-day plot - Atmospheric Pressure Atmospheric Pressure (PRES):30.03 in
5-day plot - Pressure Tendency Pressure Tendency (PTDY):-0.04 in ( Falling )
Previous observations
TIME
(EDT)
5-day plot - Wind Direction
WDIR
 
5-day plot - Wind Speed
WSPD
kts
5-day plot - Wind Gust
GST
kts
5-day plot - Wave Height
WVHT
ft
5-day plot - Dominant Wave Period
DPD
sec
5-day plot - Average Wave Period
APD
sec
5-day plot - Mean Wave Direction
MWD
 
5-day plot - Atmospheric Pressure
PRES
in
5-day plot - Pressure Tendency
PTDY
in
5-day plot - Air Temperature
ATMP
°F
5-day plot - Water Temperature
WTMP
°F
5-day plot - Dew Point
DEWP
°F
5-day plot - Salinity
SAL
psu
5-day plot - Visibility
VIS
nmi
5-day plot - Tide (above MLLW)
TIDE
ft
2024-04-17 04:50 pm-------30.03-------
2024-04-17 04:40 pm-------30.03-------
2024-04-17 04:30 pm-------30.04-------
2024-04-17 04:20 pm-------30.04-------
2024-04-17 04:10 pm-------30.04-------
2024-04-17 04:00 pm-------30.04-0.04------
2024-04-17 03:50 pm-------30.05-------
2024-04-17 03:40 pm-------30.05-------
2024-04-17 03:30 pm-------30.05-------
2024-04-17 03:20 pm-------30.05-------
2024-04-17 03:10 pm-------30.05-------
2024-04-17 03:00 pm-------30.05-0.04------
2024-04-17 02:50 pm-------30.06-------
2024-04-17 02:40 pm-------30.06-------
2024-04-17 02:30 pm-------30.06-------
2024-04-17 02:20 pm-------30.07-------
2024-04-17 02:10 pm-------30.07-------
2024-04-17 02:00 pm-------30.08+0.00------
2024-04-17 01:50 pm-------30.07-------
2024-04-17 01:40 pm-------30.07-------
2024-04-17 01:30 pm-------30.08-------
2024-04-17 01:20 pm-------30.09-------
2024-04-17 01:10 pm-------30.08-------
2024-04-17 01:00 pm-------30.09+0.02------
2024-04-17 12:50 pm-------30.09-------
2024-04-17 12:40 pm-------30.08-------
2024-04-17 12:30 pm-------30.08-------
2024-04-17 12:20 pm-------30.09-------
2024-04-17 12:10 pm-------30.09-------
2024-04-17 12:00 pm-------30.09+0.03------
2024-04-17 11:50 am-------30.09-------
2024-04-17 11:40 am-------30.08-------
2024-04-17 11:30 am-------30.08-------
2024-04-17 11:20 am-------30.08-------
2024-04-17 11:10 am-------30.08-------
2024-04-17 11:00 am-------30.08+0.04------
2024-04-17 10:50 am-------30.08-------
2024-04-17 10:40 am-------30.07-------
2024-04-17 10:30 am-------30.07-------
2024-04-17 10:20 am-------30.07-------
2024-04-17 10:10 am-------30.07-------
2024-04-17 10:00 am-------30.07+0.03------
2024-04-17 09:50 am-------30.07-------
2024-04-17 09:40 am-------30.07-------
2024-04-17 09:30 am-------30.06-------
2024-04-17 09:20 am-------30.06-------
2024-04-17 09:10 am-------30.06-------
2024-04-17 09:00 am-------30.06+0.03------
2024-04-17 08:50 am-------30.06-------
2024-04-17 08:40 am-------30.06-------
2024-04-17 08:30 am-------30.05-------
2024-04-17 08:20 am-------30.05-------
2024-04-17 08:10 am-------30.05-------
2024-04-17 08:00 am-------30.05+0.03------
2024-04-17 07:50 am-------30.04-------
2024-04-17 07:40 am-------30.04-------
2024-04-17 07:30 am-------30.03-------
2024-04-17 07:20 am-------30.04-------
2024-04-17 07:10 am-------30.04-------
2024-04-17 07:00 am-------30.03+0.02------
2024-04-17 06:50 am-------30.03-------
2024-04-17 06:40 am-------30.03-------
2024-04-17 06:30 am-------30.03-------
2024-04-17 06:20 am-------30.03-------
2024-04-17 06:10 am-------30.03-------
2024-04-17 06:00 am-------30.03+0.00------
2024-04-17 05:50 am-------30.02-------
2024-04-17 05:40 am-------30.03-------
2024-04-17 05:30 am-------30.03-------
2024-04-17 05:20 am-------30.03-------
2024-04-17 05:10 am-------30.02-------
2024-04-17 05:00 am-------30.02+0.00------
2024-04-17 04:50 am-------30.02-------
2024-04-17 04:40 am-------30.01-------
2024-04-17 04:20 am-------30.02-------
2024-04-17 04:10 am-------30.02-------
2024-04-17 04:00 am-------30.02-0.04------
2024-04-17 03:50 am-------30.02-------
2024-04-17 03:40 am-------30.02-------
2024-04-17 03:30 am-------30.02-------
2024-04-17 03:20 am-------30.02-------
2024-04-17 03:10 am-------30.02-------
2024-04-17 03:00 am-------30.02-0.04------
2024-04-17 02:50 am-------30.03-------
2024-04-17 02:40 am-------30.02-------
2024-04-17 02:30 am-------30.02-------
2024-04-17 02:20 am-------30.03-------
2024-04-17 02:10 am-------30.03-------
2024-04-17 02:00 am-------30.03-0.04------
2024-04-17 01:50 am-------30.03-------
2024-04-17 01:40 am-------30.04-------
2024-04-17 01:30 am-------30.05-------
2024-04-17 01:20 am-------30.05-------
2024-04-17 01:10 am-------30.05-------
2024-04-17 01:00 am-------30.06+0.00------
2024-04-17 12:50 am-------30.05-------
2024-04-17 12:40 am-------30.05-------
2024-04-17 12:30 am-------30.05-------
2024-04-17 12:20 am-------30.06-------
2024-04-17 12:10 am-------30.06-------
2024-04-17 12:00 am-------30.06+0.01------
2024-04-16 11:50 pm-------30.07-------
2024-04-16 11:40 pm-------30.07-------
2024-04-16 11:30 pm-------30.07-------
2024-04-16 11:20 pm-------30.07-------
2024-04-16 11:10 pm-------30.07-------
2024-04-16 11:00 pm-------30.07+0.03------
2024-04-16 10:50 pm-------30.07-------
2024-04-16 10:40 pm-------30.07-------
2024-04-16 10:30 pm-------30.07-------
2024-04-16 10:20 pm-------30.07-------
2024-04-16 10:10 pm-------30.06-------
2024-04-16 10:00 pm-------30.06+0.04------
2024-04-16 09:50 pm-------30.06-------
2024-04-16 09:40 pm-------30.06-------
2024-04-16 09:30 pm-------30.06-------
2024-04-16 09:20 pm-------30.06-------
2024-04-16 09:10 pm-------30.06-------
2024-04-16 09:00 pm-------30.06+0.04------
2024-04-16 08:50 pm-------30.05-------
2024-04-16 08:40 pm-------30.05-------
2024-04-16 08:20 pm-------30.04-------
2024-04-16 08:10 pm-------30.04-------
2024-04-16 08:00 pm-------30.04+0.03------
2024-04-16 07:50 pm-------30.03-------
2024-04-16 07:40 pm-------30.03-------
2024-04-16 07:30 pm-------30.03-------
2024-04-16 07:20 pm-------30.03-------
2024-04-16 07:10 pm-------30.03-------
2024-04-16 07:00 pm-------30.03+0.01------
2024-04-16 06:50 pm-------30.03-------
2024-04-16 06:40 pm-------30.02-------
2024-04-16 06:30 pm-------30.02-------
2024-04-16 06:20 pm-------30.01-------
2024-04-16 06:10 pm-------30.01-------
2024-04-16 06:00 pm-------30.01-0.02------
2024-04-16 05:50 pm-------30.01-------
2024-04-16 05:40 pm-------30.01-------
2024-04-16 05:30 pm-------30.01-------
2024-04-16 05:20 pm-------30.01-------
2024-04-16 05:10 pm-------30.01-------
2024-04-16 05:00 pm-------30.01-0.04------
2024-04-16 04:50 pm-------30.01-------